Voltar ao catálogo

FENGYUN 1C DEB

LostSSO
NORAD 32337·DEBRIS·🇨🇳 China

Lançado May 10, 1999 de Taiyuan Satellite Launch Center

Loading…

Próximas Passagens (próximas 24 horas)

TLE

ObsoletoSource: Space-Track

Época: Aug 5, 2024, 03:10 UTC

1 32337U 99025CYE 24218.13236493  .00009577  00000-0  10449-1 0  9998
2 32337  99.2796 180.7970 0310253 311.2204  46.2567 13.53955285836318

Acompanhe FENGYUN 1C DEB em tempo real com AllMySat

Download on the App Store